Temp
-13 -13 -13 -12 -12 -12 -12 -13 -13 -13 -13 -13 -13 -13 -13 -13 -13 -12 -12 -12 -13 -13 -13 -14 -14 -14 -13 -13 -13 -13 -13 -13 -13 -12 -12 -12 -12 -11 -11 -11 -11 -11 -11 -10 -10 -10 -10 -10 -10 -9 -9 -9 -9 -7 -6 -6 -6 -7 -7 -8 -7 -6 -5 -4 -4 -3 -1 -1 -0 -0 -0 -0 -1 -0
-14 -14 -13 -13 -13 -13 -13 -13 -14 -14 -13 -13 -13 -13 -13 -13 -13 -13 -13 -12 -13 -13 -13 -14 -14 -14 -14 -13 -13 -13 -13 -13 -13 -13 -12 -12 -12 -12 -12 -12 -12 -11 -11 -10 -10 -10 -10 -10 -10 -10 -10 -10 -9 -8 -7 -6 -6 -6 -7 -8 -8 -7 -5 -4 -3 -3 -2 -1 -1 -0 -0 -1 -1 -1
-15 -15 -14 -14 -13 -13 -14 -14 -14 -14 -14 -14 -14 -14 -13 -13 -13 -13 -13 -13 -13 -13 -14 -14 -15 -14 -14 -14 -14 -14 -14 -14 -13 -13 -13 -13 -12 -12 -12 -12 -12 -12 -11 -11 -11 -10 -10 -11 -11 -10 -10 -10 -10 -9 -8 -7 -6 -6 -7 -8 -8 -7 -5 -4 -3 -3 -2 -2 -1 -0 -0 -0 -0 -1
-15 -15 -15 -14 -14 -14 -14 -14 -14 -15 -15 -15 -14 -14 -14 -14 -13 -14 -14 -13 -13 -13 -14 -15 -15 -14 -14 -14 -14 -14 -14 -14 -14 -13 -13 -13 -13 -12 -12 -12 -12 -12 -12 -11 -11 -11 -11 -11 -11 -11 -10 -11 -11 -10 -9 -8 -7 -7 -7 -7 -8 -8 -6 -4 -3 -3 -2 -1 -0 0 0 -0 -1 -1
-16 -15 -15 -15 -15 -15 -15 -15 -15 -15 -15 -15 -15 -14 -14 -14 -14 -14 -14 -14 -13 -14 -14 -15 -15 -15 -14 -14 -14 -14 -14 -14 -14 -14 -13 -13 -13 -13 -12 -12 -13 -12 -12 -12 -11 -11 -11 -11 -11 -11 -11 -11 -12 -11 -10 -9 -7 -7 -7 -7 -8 -8 -7 -6 -4 -3 -2 -1 -0 0 0 -0 -1 -1
-16 -16 -16 -15 -15 -15 -15 -15 -15 -15 -15 -15 -15 -15 -14 -14 -14 -14 -14 -14 -14 -14 -15 -15 -15 -15 -15 -14 -14 -15 -14 -15 -14 -14 -14 -13 -13 -13 -13 -13 -13 -13 -13 -12 -12 -12 -12 -12 -12 -11 -11 -12 -12 -12 -11 -9 -8 -7 -7 -7 -7 -8 -8 -7 -6 -4 -2 -2 -1 0 1 -0 -1 -1
-17 -16 -16 -16 -16 -16 -15 -15 -16 -16 -16 -15 -15 -15 -15 -14 -14 -15 -15 -15 -14 -14 -15 -15 -15 -15 -15 -15 -15 -15 -15 -15 -15 -14 -14 -14 -14 -13 -13 -13 -13 -13 -13 -12 -12 -12 -12 -12 -12 -12 -12 -12 -12 -12 -11 -10 -9 -8 -8 -7 -7 -7 -8 -8 -8 -5 -3 -2 -2 -1 0 -0 -1 -1
-17 -17 -16 -16 -16 -16 -16 -15 -16 -16 -16 -16 -15 -15 -15 -15 -15 -15 -15 -15 -15 -15 -15 -15 -15 -15 -15 -15 -15 -15 -15 -15 -15 -14 -14 -14 -14 -14 -14 -13 -13 -13 -13 -13 -13 -12 -12 -12 -12 -12 -12 -13 -12 -12 -12 -11 -10 -9 -8 -8 -8 -7 -8 -8 -8 -7 -4 -3 -3 -2 -1 -1 -1 -1
-18 -17 -17 -17 -17 -16 -16 -16 -16 -16 -16 -16 -16 -15 -15 -15 -15 -15 -15 -15 -15 -15 -15 -15 -15 -15 -15 -15 -15 -15 -15 -15 -15 -14 -14 -14 -14 -14 -14 -14 -14 -14 -13 -13 -13 -13 -13 -12 -12 -13 -13 -13 -13 -12 -12 -11 -10 -10 -9 -9 -8 -7 -7 -8 -9 -8 -6 -5 -4 -2 -1 -1 -1 -1
-18 -18 -18 -17 -18 -17 -16 -16 -16 -16 -16 -16 -16 -16 -15 -15 -15 -15 -15 -16 -16 -16 -15 -16 -16 -15 -16 -16 -15 -15 -15 -15 -15 -15 -15 -14 -14 -14 -14 -14 -14 -14 -14 -13 -13 -13 -13 -13 -13 -13 -13 -13 -13 -13 -12 -12 -11 -10 -10 -9 -9 -8 -7 -7 -8 -8 -8 -7 -5 -3 -2 -1 -1 -2
-18 -19 -18 -18 -18 -18 -17 -17 -17 -16 -16 -16 -16 -16 -16 -16 -15 -15 -15 -16 -16 -16 -16 -16 -16 -15 -16 -16 -15 -15 -15 -15 -15 -15 -15 -15 -15 -15 -14 -14 -14 -14 -14 -14 -13 -13 -13 -13 -13 -13 -13 -13 -13 -13 -12 -12 -11 -11 -10 -10 -9 -8 -7 -7 -7 -8 -8 -8 -6 -4 -2 -2 -2 -2
-18 -19 -19 -19 -19 -18 -18 -18 -17 -17 -17 -16 -16 -16 -16 -16 -16 -15 -16 -16 -16 -16 -16 -16 -16 -16 -16 -16 -16 -15 -15 -15 -15 -15 -15 -15 -16 -15 -14 -14 -15 -14 -14 -14 -14 -14 -13 -13 -13 -13 -13 -14 -13 -13 -13 -12 -11 -11 -10 -10 -9 -8 -8 -7 -7 -7 -8 -8 -8 -5 -3 -2 -2 -2
-18 -19 -19 -19 -19 -19 -18 -18 -18 -18 -17 -17 -16 -16 -16 -16 -16 -16 -16 -16 -16 -16 -16 -16 -16 -16 -16 -16 -16 -16 -15 -15 -15 -15 -15 -15 -16 -15 -15 -15 -15 -14 -14 -14 -14 -14 -14 -13 -13 -13 -13 -14 -14 -13 -13 -12 -12 -11 -11 -10 -9 -8 -8 -7 -7 -7 -7 -8 -8 -7 -4 -3 -2 -3
-19 -19 -19 -20 -20 -20 -19 -18 -18 -18 -18 -17 -16 -16 -16 -16 -16 -16 -16 -16 -16 -16 -16 -16 -16 -16 -16 -16 -16 -16 -15 -15 -15 -16 -16 -16 -15 -15 -15 -15 -14 -14 -15 -15 -15 -14 -14 -14 -14 -14 -14 -14 -14 -14 -14 -13 -12 -12 -11 -10 -10 -8 -8 -7 -7 -7 -7 -7 -8 -8 -6 -4 -3 -3
-19 -19 -19 -20 -20 -20 -20 -19 -19 -19 -18 -18 -17 -17 -17 -16 -16 -16 -17 -17 -17 -17 -16 -16 -16 -16 -16 -16 -16 -16 -15 -15 -15 -16 -16 -16 -15 -15 -15 -15 -15 -14 -15 -15 -15 -14 -14 -14 -14 -14 -14 -14 -14 -14 -14 -13 -13 -12 -12 -11 -10 -9 -8 -8 -7 -7 -7 -7 -8 -8 -8 -6 -5 -3
-20 -20 -20 -20 -20 -20 -20 -19 -19 -19 -19 -18 -18 -17 -17 -17 -17 -17 -17 -17 -17 -17 -17 -16 -16 -16 -16 -17 -16 -16 -15 -15 -16 -16 -16 -16 -16 -15 -15 -15 -15 -14 -15 -15 -15 -14 -14 -14 -14 -14 -14 -14 -14 -14 -14 -13 -13 -12 -12 -11 -10 -10 -9 -8 -8 -8 -8 -7 -7 -8 -8 -8 -6 -4
-22 -21 -21 -20 -20 -20 -20 -20 -19 -19 -19 -19 -18 -18 -17 -17 -17 -17 -17 -17 -17 -17 -17 -17 -17 -17 -17 -17 -16 -16 -15 -16 -16 -16 -16 -16 -16 -15 -15 -15 -14 -15 -15 -15 -15 -15 -15 -15 -14 -14 -15 -15 -14 -14 -14 -14 -13 -13 -12 -11 -11 -10 -9 -9 -8 -8 -8 -7 -7 -8 -8 -8 -7 -5
-22 -22 -22 -21 -20 -20 -21 -20 -19 -19 -19 -19 -19 -18 -18 -17 -17 -17 -18 -17 -17 -17 -17 -17 -17 -17 -17 -17 -16 -16 -16 -16 -16 -16 -16 -16 -16 -15 -15 -15 -15 -15 -15 -15 -15 -15 -15 -15 -15 -15 -15 -15 -14 -14 -14 -14 -13 -13 -12 -12 -11 -10 -10 -9 -9 -8 -8 -7 -7 -8 -8 -8 -7 -6
-23 -23 -23 -22 -21 -21 -21 -20 -20 -20 -19 -19 -19 -19 -18 -18 -18 -18 -18 -18 -18 -18 -17 -17 -18 -17 -17 -17 -17 -16 -16 -17 -16 -16 -16 -16 -16 -15 -15 -15 -15 -15 -15 -15 -15 -15 -15 -15 -15 -15 -15 -15 -14 -14 -14 -14 -13 -13 -13 -12 -11 -11 -10 -10 -9 -9 -8 -8 -7 -8 -8 -8 -7 -7
-23 -22 -22 -22 -21 -21 -21 -21 -20 -20 -20 -19 -19 -19 -18 -18 -18 -19 -19 -19 -18 -18 -18 -18 -18 -17 -17 -17 -17 -17 -17 -17 -17 -16 -16 -16 -16 -16 -15 -15 -16 -16 -15 -15 -15 -15 -15 -15 -15 -15 -15 -15 -14 -14 -14 -14 -13 -13 -13 -13 -12 -11 -11 -10 -10 -9 -9 -8 -8 -8 -8 -8 -8 -7
-24 -22 -22 -22 -22 -21 -21 -21 -21 -21 -20 -20 -20 -19 -19 -18 -19 -19 -19 -19 -19 -18 -18 -18 -18 -18 -17 -17 -17 -17 -17 -17 -17 -17 -16 -16 -16 -16 -16 -16 -16 -16 -16 -16 -15 -15 -15 -15 -15 -15 -15 -15 -14 -14 -14 -14 -13 -13 -13 -13 -12 -12 -11 -11 -10 -10 -9 -9 -8 -8 -8 -8 -8 -7
-24 -23 -22 -22 -22 -22 -21 -21 -21 -21 -21 -20 -20 -20 -19 -19 -19 -19 -19 -19 -19 -19 -18 -18 -18 -18 -18 -18 -18 -17 -17 -17 -17 -17 -17 -17 -16 -16 -16 -16 -16 -16 -16 -16 -16 -16 -15 -15 -15 -15 -15 -15 -14 -14 -13 -13 -13 -13 -13 -13 -13 -12 -12 -11 -11 -10 -10 -9 -9 -8 -8 -8 -8 -7
-25 -23 -22 -22 -22 -22 -21 -21 -21 -21 -21 -20 -20 -20 -19 -19 -19 -20 -20 -19 -19 -19 -19 -19 -18 -18 -18 -18 -18 -18 -18 -18 -17 -17 -17 -17 -17 -16 -16 -16 -16 -16 -16 -16 -16 -16 -16 -15 -15 -15 -15 -15 -15 -14 -14 -14 -13 -13 -13 -13 -13 -13 -12 -12 -11 -11 -10 -10 -10 -9 -9 -8 -8 -8
-24 -23 -22 -22 -23 -22 -22 -21 -21 -21 -21 -21 -20 -20 -20 -20 -20 -20 -20 -20 -20 -19 -19 -19 -19 -19 -19 -18 -18 -18 -18 -18 -18 -17 -17 -17 -17 -16 -16 -16 -16 -16 -16 -16 -16 -16 -16 -16 -16 -15 -15 -15 -15 -15 -14 -14 -14 -14 -14 -14 -14 -13 -13 -12 -12 -12 -11 -11 -10 -10 -9 -8 -8 -8
-24 -23 -22 -22 -22 -22 -22 -21 -21 -21 -21 -21 -21 -20 -20 -20 -21 -21 -21 -20 -20 -20 -19 -19 -19 -19 -19 -19 -18 -19 -19 -18 -18 -18 -18 -17 -17 -17 -17 -17 -17 -16 -16 -16 -16 -16 -16 -16 -16 -16 -16 -16 -16 -16 -16 -15 -15 -15 -15 -15 -14 -14 -13 -13 -12 -12 -12 -12 -11 -10 -9 -9 -8 -8
-24 -23 -22 -22 -22 -22 -22 -21 -21 -21 -22 -21 -21 -20 -21 -21 -22 -22 -21 -21 -20 -20 -19 -20 -19 -19 -19 -19 -19 -19 -19 -19 -18 -18 -18 -18 -17 -17 -17 -17 -17 -17 -17 -16 -16 -16 -16 -16 -16 -16 -16 -17 -17 -17 -17 -17 -17 -17 -17 -16 -16 -15 -14 -13 -13 -12 -12 -12 -12 -11 -10 -9 -9 -8
-24 -23 -23 -23 -22 -22 -22 -22 -22 -22 -22 -21 -21 -21 -22 -22 -22 -22 -21 -21 -20 -20 -20 -20 -20 -20 -20 -20 -20 -20 -20 -19 -19 -19 -18 -18 -18 -17 -17 -17 -17 -17 -17 -17 -17 -17 -17 -17 -17 -17 -17 -17 -17 -18 -18 -19 -18 -18 -18 -18 -17 -17 -16 -15 -14 -13 -13 -12 -12 -12 -11 -10 -10 -9
-24 -23 -23 -23 -23 -22 -22 -22 -22 -22 -22 -22 -21 -22 -22 -22 -22 -22 -21 -21 -21 -20 -21 -20 -20 -20 -20 -20 -20 -20 -20 -20 -19 -19 -19 -18 -18 -18 -17 -17 -17 -17 -17 -17 -17 -17 -17 -17 -17 -17 -17 -18 -18 -19 -19 -20 -19 -19 -19 -19 -18 -18 -17 -16 -15 -14 -13 -13 -13 -12 -12 -12 -11 -10
-24 -23 -23 -23 -23 -23 -23 -23 -22 -22 -22 -22 -22 -22 -23 -23 -23 -22 -22 -21 -21 -21 -21 -21 -21 -20 -21 -21 -20 -20 -20 -20 -19 -19 -19 -19 -19 -18 -18 -18 -18 -18 -18 -18 -18 -18 -17 -17 -17 -18 -18 -18 -18 -19 -20 -20 -20 -20 -20 -19 -19 -18 -18 -17 -17 -16 -15 -14 -14 -13 -13 -13 -12 -12
-23 -23 -23 -23 -23 -23 -23 -23 -23 -23 -23 -22 -22 -23 -23 -24 -24 -23 -22 -22 -21 -21 -21 -21 -21 -21 -21 -21 -21 -20 -20 -20 -20 -20 -19 -19 -19 -19 -18 -18 -18 -18 -18 -18 -18 -18 -18 -18 -18 -18 -18 -18 -19 -20 -20 -20 -20 -20 -20 -20 -19 -19 -19 -18 -18 -17 -16 -16 -15 -14 -14 -13 -13 -13
-23 -23 -23 -23 -23 -23 -23 -23 -23 -23 -23 -23 -23 -23 -23 -24 -24 -23 -22 -22 -22 -22 -22 -22 -21 -21 -21 -21 -21 -20 -20 -20 -20 -20 -20 -19 -19 -19 -19 -19 -18 -18 -19 -19 -19 -18 -18 -18 -18 -18 -18 -19 -19 -20 -20 -20 -20 -20 -20 -20 -20 -19 -19 -19 -19 -18 -18 -17 -16 -15 -15 -14 -14 -13
-23 -23 -22 -23 -23 -23 -23 -23 -23 -23 -23 -23 -23 -24 -24 -24 -24 -24 -23 -22 -23 -22 -22 -22 -22 -22 -21 -21 -21 -20 -20 -20 -20 -20 -20 -20 -19 -19 -19 -19 -19 -19 -19 -19 -19 -19 -19 -18 -18 -18 -19 -19 -19 -20 -20 -20 -20 -20 -20 -20 -20 -20 -20 -19 -19 -19 -19 -18 -17 -16 -16 -15 -14 -14
-23 -23 -23 -23 -22 -23 -23 -23 -23 -23 -23 -23 -23 -23 -24 -24 -25 -24 -23 -23 -23 -23 -22 -22 -22 -22 -22 -22 -21 -21 -21 -20 -20 -20 -20 -20 -20 -19 -20 -19 -19 -19 -19 -19 -19 -19 -19 -19 -19 -19 -19 -19 -20 -20 -20 -20 -20 -20 -20 -20 -20 -20 -20 -20 -20 -20 -20 -19 -19 -18 -17 -16 -16 -15
-23 -23 -23 -22 -22 -23 -23 -23 -23 -23 -23 -24 -24 -24 -24 -24 -24 -24 -23 -23 -23 -23 -22 -22 -22 -22 -22 -22 -22 -21 -21 -21 -20 -20 -20 -20 -20 -20 -20 -20 -19 -19 -19 -19 -19 -19 -19 -19 -19 -19 -19 -19 -20 -20 -20 -21 -20 -21 -21 -20 -20 -21 -20 -20 -20 -20 -20 -20 -19 -19 -18 -18 -17 -16
-23 -23 -23 -22 -23 -23 -23 -23 -23 -23 -23 -24 -24 -24 -24 -24 -24 -24 -23 -23 -23 -23 -23 -22 -23 -23 -23 -22 -22 -22 -21 -21 -21 -20 -20 -20 -20 -20 -20 -20 -20 -19 -19 -19 -19 -19 -19 -19 -19 -19 -19 -19 -20 -20 -20 -21 -21 -21 -21 -21 -21 -21 -21 -21 -20 -20 -20 -20 -20 -20 -19 -19 -18 -17
-24 -23 -23 -23 -23 -24 -24 -23 -23 -23 -23 -24 -24 -24 -24 -24 -24 -23 -23 -23 -23 -23 -23 -23 -23 -23 -22 -22 -22 -22 -21 -21 -21 -20 -20 -20 -20 -20 -20 -20 -20 -20 -20 -19 -19 -19 -19 -19 -19 -20 -19 -19 -20 -20 -20 -20 -21 -21 -21 -21 -21 -21 -21 -21 -21 -20 -20 -20 -20 -20 -20 -19 -19 -18
-24 -24 -23 -23 -24 -24 -24 -24 -24 -24 -24 -24 -24 -24 -24 -24 -24 -23 -23 -23 -23 -23 -23 -23 -23 -23 -22 -22 -22 -22 -21 -21 -21 -21 -20 -20 -20 -20 -20 -20 -20 -20 -20 -20 -19 -19 -19 -19 -19 -20 -20 -20 -20 -20 -20 -20 -21 -21 -21 -21 -21 -21 -21 -21 -21 -21 -21 -20 -20 -20 -20 -20 -20 -19
-24 -24 -24 -24 -24 -25 -25 -25 -24 -24 -24 -24 -24 -24 -24 -24 -24 -24 -24 -24 -23 -23 -23 -23 -23 -23 -23 -22 -22 -22 -22 -21 -21 -21 -20 -20 -20 -20 -20 -20 -20 -20 -20 -20 -20 -20 -20 -19 -19 -19 -19 -20 -20 -20 -20 -20 -20 -21 -21 -21 -21 -21 -21 -21 -21 -21 -21 -21 -20 -20 -20 -20 -20 -20
-24 -24 -24 -24 -24 -25 -25 -25 -24 -24 -24 -24 -24 -24 -24 -24 -24 -24 -24 -24 -23 -23 -23 -23 -23 -23 -23 -22 -22 -22 -22 -21 -21 -21 -20 -20 -20 -20 -20 -20 -20 -20 -20 -20 -20 -20 -20 -20 -20 -19 -20 -20 -20 -20 -20 -20 -20 -20 -20 -21 -21 -21 -21 -21 -21 -21 -21 -20 -20 -20 -20 -20 -20 -20
-24 -24 -24 -24 -24 -25 -25 -25 -25 -24 -25 -25 -25 -24 -24 -24 -24 -24 -24 -24 -23 -23 -23 -23 -23 -23 -23 -22 -22 -22 -22 -21 -21 -21 -21 -20 -20 -20 -20 -20 -20 -20 -20 -20 -20 -20 -20 -20 -20 -20 -20 -20 -20 -20 -20 -20 -20 -20 -20 -20 -20 -21 -21 -21 -21 -21 -21 -20 -20 -20 -20 -20 -20 -20
-24 -24 -24 -24 -24 -25 -25 -25 -25 -25 -25 -25 -25 -25 -24 -24 -24 -24 -24 -24 -24 -24 -23 -23 -23 -23 -23 -22 -22 -22 -22 -21 -21 -21 -21 -20 -20 -20 -20 -20 -20 -20 -20 -20 -20 -20 -20 -20 -21 -21 -21 -21 -20 -20 -20 -20 -20 -20 -20 -20 -20 -20 -20 -21 -21 -21 -21 -20 -20 -20 -20 -20 -20 -20
-25 -25 -25 -25 -25 -25 -25 -25 -25 -25 -25 -25 -25 -25 -25 -24 -24 -24 -24 -24 -24 -24 -23 -23 -23 -23 -22 -22 -22 -22 -22 -21 -21 -21 -21 -21 -20 -20 -20 -20 -20 -19 -19 -19 -20 -20 -20 -20 -20 -21 -21 -21 -20 -20 -20 -20 -20 -20 -20 -20 -20 -20 -20 -20 -20 -20 -21 -21 -20 -20 -20 -20 -20 -20
-26 -26 -25 -25 -25 -25 -25 -25 -25 -25 -25 -25 -25 -25 -25 -24 -24 -24 -24 -24 -24 -24 -23 -23 -23 -23 -22 -22 -22 -22 -21 -21 -21 -21 -21 -21 -21 -20 -20 -20 -20 -19 -19 -19 -20 -20 -20 -20 -20 -20 -20 -20 -20 -20 -20 -21 -21 -21 -20 -20 -20 -20 -20 -20 -20 -20 -20 -20 -20 -20 -20 -20 -20 -20
-26 -26 -26 -26 -25 -25 -25 -25 -25 -25 -25 -25 -25 -25 -25 -25 -24 -24 -24 -24 -24 -24 -24 -23 -23 -23 -22 -22 -22 -22 -21 -21 -21 -21 -21 -21 -21 -20 -20 -20 -20 -20 -20 -20 -20 -20 -19 -19 -19 -20 -20 -20 -20 -20 -21 -21 -21 -21 -21 -20 -20 -20 -20 -20 -20 -20 -20 -20 -20 -20 -20 -20 -20 -20
-27 -26 -26 -26 -25 -25 -25 -25 -25 -25 -25 -25 -25 -25 -25 -25 -25 -25 -25 -24 -24 -24 -24 -24 -23 -23 -23 -22 -22 -22 -21 -21 -21 -21 -21 -21 -20 -20 -20 -20 -20 -20 -20 -20 -20 -20 -20 -20 -20 -20 -20 -20 -20 -20 -21 -22 -22 -22 -22 -21 -20 -20 -20 -20 -20 -20 -20 -20 -20 -20 -20 -20 -20 -20
Height
2893 2893 2894 2894 2895 2896 2896 2896 2896 2896 2896 2896 2896 2896 2896 2896 2895 2894 2893 2894 2896 2897 2898 2899 2899 2899 2898 2898 2898 2898 2899 2900 2901 2902 2902 2903 2903 2904 2904 2903 2903 2904 2905 2905 2905 2905 2905 2905 2904 2905 2905 2906 2907 2910 2915 2919 2923 2927 2929 2930 2931 2932 2933 2933 2933 2934 2937 2940 2945 2952 2957 2960 2963 2968
2885 2886 2887 2887 2888 2889 2889 2890 2890 2890 2889 2890 2890 2890 2890 2890 2889 2888 2887 2887 2889 2891 2892 2893 2893 2893 2893 2892 2892 2892 2893 2894 2895 2896 2896 2897 2898 2898 2898 2898 2898 2899 2899 2900 2900 2901 2900 2899 2899 2899 2900 2901 2902 2905 2910 2914 2918 2922 2925 2926 2926 2928 2927 2927 2928 2929 2931 2934 2939 2946 2952 2955 2958 2962
2878 2878 2879 2880 2881 2882 2882 2883 2883 2883 2883 2884 2884 2884 2885 2884 2884 2884 2882 2880 2882 2885 2887 2888 2888 2887 2887 2886 2886 2886 2887 2888 2889 2890 2890 2891 2892 2892 2893 2893 2893 2894 2894 2894 2895 2896 2895 2895 2894 2894 2895 2896 2897 2900 2904 2908 2913 2917 2920 2921 2922 2923 2922 2922 2922 2924 2926 2929 2935 2942 2947 2949 2951 2954
2871 2871 2872 2873 2874 2875 2875 2876 2876 2877 2877 2878 2878 2878 2879 2879 2878 2878 2877 2875 2876 2880 2881 2881 2882 2882 2881 2881 2881 2881 2882 2883 2884 2884 2885 2885 2886 2887 2888 2888 2888 2889 2889 2890 2890 2890 2890 2890 2889 2889 2890 2891 2893 2895 2898 2902 2906 2910 2913 2916 2918 2918 2917 2916 2916 2919 2921 2924 2930 2937 2940 2941 2943 2946
2864 2864 2865 2866 2867 2867 2867 2868 2869 2870 2871 2872 2872 2873 2873 2873 2873 2872 2871 2870 2870 2874 2876 2876 2876 2877 2876 2876 2876 2876 2877 2878 2878 2878 2879 2880 2881 2882 2883 2883 2884 2884 2885 2885 2885 2886 2886 2885 2885 2885 2885 2886 2888 2890 2893 2896 2900 2905 2908 2911 2914 2915 2913 2911 2910 2913 2917 2918 2923 2929 2931 2934 2937 2939
2858 2857 2858 2858 2859 2860 2860 2861 2862 2863 2865 2866 2866 2867 2867 2867 2867 2867 2866 2865 2865 2867 2871 2871 2870 2871 2871 2871 2872 2871 2871 2873 2873 2873 2874 2874 2875 2877 2877 2878 2879 2880 2880 2881 2881 2881 2881 2881 2881 2880 2880 2881 2883 2886 2888 2891 2895 2900 2904 2906 2910 2911 2910 2908 2906 2908 2913 2913 2914 2918 2920 2924 2929 2931
2851 2851 2851 2851 2853 2853 2854 2854 2855 2856 2858 2859 2860 2861 2861 2861 2861 2861 2861 2860 2860 2862 2865 2866 2865 2866 2867 2866 2867 2867 2867 2868 2868 2868 2869 2870 2870 2871 2872 2873 2874 2875 2876 2876 2877 2877 2877 2877 2876 2876 2876 2877 2879 2882 2884 2887 2890 2894 2898 2901 2905 2907 2907 2906 2903 2903 2908 2910 2909 2909 2911 2914 2920 2925
2844 2844 2844 2845 2846 2847 2847 2848 2849 2850 2851 2852 2853 2854 2855 2856 2856 2856 2855 2855 2855 2856 2859 2861 2861 2861 2862 2861 2862 2862 2862 2863 2863 2864 2865 2865 2866 2866 2867 2869 2870 2871 2871 2872 2873 2873 2873 2873 2873 2872 2872 2872 2874 2877 2879 2882 2885 2889 2893 2896 2899 2903 2904 2904 2901 2900 2903 2905 2904 2903 2904 2907 2914 2921
2836 2837 2837 2839 2840 2840 2840 2841 2843 2844 2845 2846 2847 2848 2849 2850 2851 2851 2850 2850 2850 2851 2853 2856 2856 2857 2857 2857 2858 2858 2858 2859 2859 2860 2860 2861 2861 2862 2863 2864 2865 2866 2867 2867 2868 2869 2870 2870 2869 2868 2868 2868 2869 2871 2873 2876 2880 2884 2888 2892 2895 2899 2901 2901 2900 2898 2898 2900 2899 2898 2900 2904 2911 2917
2829 2830 2831 2832 2833 2833 2834 2835 2837 2839 2839 2840 2841 2842 2843 2844 2845 2845 2845 2845 2846 2847 2849 2851 2852 2853 2853 2853 2854 2854 2854 2854 2855 2855 2855 2856 2857 2858 2859 2860 2861 2861 2862 2863 2864 2866 2866 2866 2866 2865 2864 2863 2864 2866 2868 2871 2875 2879 2884 2888 2891 2895 2898 2899 2898 2896 2896 2895 2894 2895 2898 2902 2908 2913
2821 2822 2823 2825 2826 2827 2828 2829 2831 2832 2833 2834 2835 2836 2838 2838 2839 2839 2840 2841 2841 2843 2845 2846 2847 2849 2849 2849 2850 2850 2850 2850 2851 2851 2851 2852 2853 2854 2855 2856 2856 2856 2857 2859 2861 2862 2863 2863 2862 2861 2861 2860 2860 2861 2863 2866 2870 2875 2880 2884 2888 2891 2894 2895 2895 2894 2893 2892 2891 2892 2894 2898 2903 2908
2812 2814 2815 2817 2819 2820 2821 2823 2824 2825 2827 2828 2829 2831 2832 2833 2833 2834 2835 2836 2837 2839 2840 2842 2844 2845 2845 2846 2846 2846 2846 2846 2847 2847 2848 2849 2849 2849 2851 2852 2852 2852 2854 2856 2857 2858 2859 2859 2859 2858 2858 2858 2858 2859 2861 2863 2866 2870 2875 2880 2883 2886 2889 2891 2891 2891 2891 2890 2890 2889 2890 2894 2899 2904
2805 2806 2808 2810 2812 2814 2815 2816 2818 2819 2820 2821 2823 2825 2827 2827 2828 2829 2830 2831 2833 2834 2836 2838 2840 2840 2841 2842 2842 2842 2843 2843 2843 2843 2844 2846 2846 2846 2847 2847 2848 2849 2852 2853 2853 2853 2855 2856 2856 2856 2855 2856 2857 2858 2860 2862 2863 2866 2871 2875 2877 2880 2884 2886 2887 2888 2889 2889 2888 2886 2887 2892 2897 2901
2797 2799 2800 2803 2805 2807 2808 2810 2811 2813 2814 2815 2817 2820 2821 2822 2823 2824 2825 2827 2829 2830 2832 2834 2835 2836 2838 2838 2838 2839 2839 2839 2840 2841 2841 2842 2842 2843 2843 2843 2845 2847 2849 2849 2849 2850 2853 2853 2853 2853 2854 2855 2856 2857 2858 2859 2861 2863 2866 2869 2872 2875 2879 2882 2884 2886 2888 2889 2889 2887 2885 2889 2894 2898
2790 2792 2793 2795 2797 2800 2802 2804 2806 2807 2808 2809 2811 2814 2815 2816 2818 2819 2821 2823 2824 2826 2828 2830 2831 2833 2834 2834 2834 2835 2836 2836 2837 2838 2838 2838 2838 2839 2840 2841 2842 2845 2846 2846 2846 2848 2850 2850 2849 2851 2852 2853 2853 2854 2854 2855 2857 2858 2861 2864 2868 2871 2875 2879 2882 2885 2887 2888 2890 2888 2885 2887 2890 2894
2783 2784 2786 2788 2790 2793 2795 2798 2800 2801 2802 2804 2806 2808 2809 2811 2812 2814 2817 2818 2820 2822 2824 2826 2828 2829 2830 2830 2831 2832 2832 2833 2834 2834 2835 2835 2835 2836 2837 2838 2840 2842 2843 2843 2844 2845 2846 2846 2846 2848 2849 2850 2850 2850 2851 2852 2852 2854 2856 2859 2864 2868 2872 2875 2879 2881 2883 2885 2887 2886 2885 2886 2888 2890
2776 2777 2779 2781 2783 2786 2789 2792 2794 2795 2797 2798 2800 2802 2804 2805 2808 2810 2812 2814 2816 2818 2820 2822 2824 2825 2826 2827 2827 2828 2829 2830 2831 2831 2831 2832 2832 2833 2835 2836 2837 2839 2840 2840 2841 2842 2843 2843 2844 2845 2846 2847 2847 2847 2848 2849 2849 2851 2852 2855 2860 2864 2868 2871 2874 2877 2879 2880 2883 2885 2885 2886 2886 2887
2770 2771 2772 2774 2777 2780 2783 2786 2788 2790 2791 2793 2795 2796 2798 2801 2803 2806 2808 2810 2812 2814 2817 2819 2820 2821 2822 2823 2824 2825 2826 2827 2827 2828 2829 2829 2830 2831 2833 2834 2835 2836 2836 2837 2839 2840 2840 2840 2841 2842 2844 2844 2845 2846 2846 2846 2847 2848 2850 2852 2855 2859 2863 2866 2869 2872 2875 2877 2881 2883 2884 2884 2884 2884
2763 2765 2766 2768 2771 2774 2777 2780 2782 2784 2786 2787 2789 2791 2794 2797 2799 2801 2804 2806 2808 2810 2813 2815 2816 2817 2818 2820 2821 2822 2823 2824 2824 2825 2826 2826 2827 2828 2830 2831 2832 2833 2833 2835 2836 2837 2837 2838 2839 2840 2840 2841 2842 2843 2843 2843 2844 2845 2846 2848 2851 2854 2858 2861 2864 2867 2871 2874 2877 2880 2882 2882 2881 2881
2755 2758 2761 2763 2765 2768 2771 2774 2777 2779 2780 2782 2783 2786 2789 2792 2795 2797 2800 2802 2804 2807 2809 2811 2812 2813 2815 2816 2818 2819 2820 2821 2821 2822 2823 2824 2825 2826 2827 2829 2829 2830 2831 2833 2834 2835 2835 2836 2837 2837 2837 2838 2838 2839 2839 2840 2840 2841 2843 2844 2847 2849 2852 2855 2859 2862 2865 2869 2873 2877 2879 2879 2878 2879
2749 2753 2756 2758 2760 2762 2765 2769 2771 2773 2774 2776 2778 2782 2785 2788 2790 2794 2796 2798 2801 2803 2805 2807 2808 2810 2812 2814 2815 2816 2817 2818 2819 2820 2820 2821 2822 2823 2825 2826 2827 2828 2830 2831 2832 2833 2833 2834 2834 2834 2834 2834 2834 2834 2835 2836 2836 2837 2839 2840 2842 2845 2848 2851 2854 2857 2860 2864 2869 2873 2875 2875 2876 2877
2743 2747 2751 2753 2754 2757 2760 2764 2766 2767 2768 2770 2774 2778 2781 2783 2786 2790 2793 2795 2797 2799 2801 2803 2805 2807 2809 2810 2812 2813 2815 2816 2816 2817 2818 2819 2820 2821 2822 2823 2825 2826 2828 2829 2830 2831 2831 2832 2832 2832 2832 2831 2831 2831 2831 2832 2832 2833 2834 2836 2838 2841 2844 2847 2850 2853 2856 2860 2865 2869 2871 2872 2874 2877
2738 2742 2746 2748 2750 2752 2756 2758 2760 2761 2763 2766 2770 2774 2776 2779 2784 2788 2790 2792 2794 2796 2798 2800 2801 2803 2805 2807 2809 2811 2812 2813 2814 2815 2815 2817 2818 2819 2820 2821 2823 2824 2826 2827 2829 2829 2829 2830 2830 2830 2829 2829 2829 2829 2829 2828 2829 2829 2831 2832 2835 2837 2839 2842 2846 2850 2854 2858 2861 2865 2867 2868 2872 2875
2733 2737 2741 2743 2746 2748 2751 2753 2755 2757 2759 2762 2766 2769 2771 2777 2782 2785 2786 2788 2790 2792 2794 2796 2798 2800 2802 2804 2807 2808 2810 2811 2812 2812 2813 2814 2816 2817 2818 2819 2821 2823 2824 2826 2827 2828 2828 2828 2828 2828 2828 2827 2827 2827 2827 2827 2827 2827 2829 2830 2832 2834 2836 2839 2842 2847 2851 2855 2858 2861 2863 2865 2869 2873
2728 2733 2736 2739 2742 2744 2746 2748 2750 2752 2755 2758 2762 2764 2769 2775 2778 2780 2781 2784 2786 2788 2791 2793 2795 2797 2799 2802 2804 2806 2807 2808 2809 2810 2811 2812 2814 2815 2817 2818 2819 2821 2823 2824 2825 2826 2826 2827 2827 2827 2827 2826 2826 2826 2826 2827 2827 2827 2828 2829 2830 2831 2833 2836 2839 2843 2847 2851 2854 2857 2859 2862 2866 2870
2724 2729 2732 2735 2738 2740 2741 2743 2746 2748 2751 2754 2757 2762 2767 2771 2773 2775 2777 2780 2782 2785 2788 2790 2792 2795 2797 2800 2802 2804 2805 2806 2807 2808 2809 2811 2812 2814 2815 2817 2818 2819 2821 2822 2823 2824 2825 2825 2826 2826 2826 2826 2826 2825 2826 2826 2827 2827 2828 2829 2829 2830 2831 2833 2836 2839 2842 2845 2848 2852 2855 2859 2862 2866
2720 2724 2727 2730 2733 2735 2737 2739 2741 2744 2747 2750 2754 2759 2763 2766 2768 2771 2774 2776 2779 2782 2785 2787 2790 2792 2795 2798 2800 2802 2803 2804 2805 2806 2807 2809 2810 2812 2814 2815 2816 2818 2819 2821 2822 2823 2824 2824 2824 2825 2826 2826 2826 2826 2826 2827 2827 2827 2827 2828 2828 2829 2829 2830 2832 2835 2838 2841 2843 2847 2852 2855 2859 2862
2715 2719 2722 2726 2728 2730 2732 2735 2738 2741 2744 2747 2752 2756 2760 2762 2765 2767 2770 2773 2777 2779 2782 2785 2788 2790 2793 2796 2798 2799 2800 2801 2802 2804 2805 2807 2808 2810 2812 2813 2814 2816 2818 2820 2821 2822 2822 2823 2823 2824 2825 2825 2825 2825 2826 2826 2827 2827 2827 2826 2826 2827 2827 2828 2829 2831 2834 2837 2840 2844 2848 2851 2855 2858
2711 2714 2718 2721 2723 2725 2728 2731 2734 2737 2740 2743 2748 2753 2756 2759 2761 2764 2768 2771 2774 2776 2780 2783 2786 2788 2791 2793 2795 2796 2797 2799 2801 2802 2804 2805 2807 2808 2810 2811 2813 2815 2817 2818 2820 2820 2821 2821 2822 2822 2823 2824 2824 2824 2825 2825 2826 2826 2826 2825 2825 2825 2825 2825 2826 2828 2831 2834 2837 2841 2844 2847 2851 2854
2707 2710 2713 2716 2718 2721 2724 2727 2730 2733 2736 2741 2745 2750 2753 2756 2758 2761 2765 2768 2771 2775 2778 2781 2784 2786 2788 2790 2791 2793 2795 2797 2799 2800 2802 2803 2805 2806 2808 2809 2811 2813 2814 2816 2818 2819 2819 2820 2821 2821 2822 2823 2823 2823 2823 2824 2824 2825 2825 2825 2824 2824 2824 2825 2825 2826 2828 2830 2833 2837 2840 2843 2847 2850
2704 2707 2709 2712 2715 2718 2721 2723 2727 2730 2733 2737 2742 2746 2750 2753 2755 2759 2763 2767 2770 2773 2777 2779 2782 2783 2785 2786 2789 2791 2793 2795 2797 2799 2801 2802 2803 2804 2806 2807 2809 2811 2812 2814 2816 2817 2818 2819 2819 2820 2821 2821 2822 2822 2822 2823 2824 2824 2825 2825 2825 2825 2825 2825 2826 2826 2827 2828 2831 2833 2836 2839 2842 2846
2700 2703 2706 2709 2712 2715 2718 2720 2724 2727 2730 2734 2738 2742 2746 2750 2753 2757 2761 2764 2767 2770 2774 2776 2778 2780 2782 2785 2787 2789 2791 2793 2795 2797 2799 2800 2802 2803 2804 2805 2807 2808 2810 2812 2814 2816 2817 2818 2818 2819 2819 2820 2821 2822 2822 2822 2823 2824 2825 2825 2826 2826 2826 2826 2827 2827 2827 2827 2829 2831 2833 2835 2838 2842
2696 2700 2703 2705 2709 2712 2716 2718 2721 2725 2728 2732 2736 2739 2743 2747 2751 2754 2758 2761 2764 2768 2771 2774 2776 2778 2781 2783 2785 2787 2789 2791 2793 2795 2797 2799 2800 2802 2803 2804 2805 2806 2808 2810 2812 2814 2815 2816 2817 2818 2818 2819 2820 2821 2822 2822 2823 2824 2824 2825 2826 2827 2827 2827 2827 2827 2827 2827 2828 2830 2832 2834 2836 2839
2693 2697 2701 2704 2707 2711 2714 2717 2720 2723 2726 2730 2734 2738 2741 2745 2748 2752 2755 2758 2762 2766 2769 2772 2775 2777 2779 2781 2783 2786 2787 2789 2791 2793 2795 2797 2798 2800 2802 2802 2803 2804 2806 2808 2811 2812 2813 2814 2816 2817 2818 2818 2820 2820 2821 2822 2823 2823 2824 2824 2825 2826 2827 2827 2827 2827 2827 2828 2828 2829 2831 2833 2835 2838
2691 2695 2699 2702 2706 2709 2712 2715 2718 2721 2725 2728 2732 2736 2740 2743 2747 2750 2753 2757 2760 2764 2767 2770 2773 2775 2777 2780 2782 2784 2786 2788 2789 2791 2793 2795 2797 2799 2800 2801 2802 2803 2805 2806 2809 2810 2812 2813 2814 2816 2817 2818 2819 2820 2821 2821 2822 2823 2824 2824 2825 2825 2826 2827 2827 2827 2827 2828 2829 2830 2831 2832 2834 2837
2690 2693 2697 2701 2704 2708 2710 2713 2716 2720 2723 2726 2730 2734 2738 2742 2745 2748 2751 2755 2759 2762 2765 2768 2771 2774 2776 2778 2780 2782 2784 2786 2788 2790 2791 2793 2795 2797 2799 2800 2801 2802 2803 2805 2806 2809 2810 2811 2813 2814 2816 2817 2818 2820 2821 2821 2822 2823 2824 2824 2825 2825 2826 2827 2827 2827 2828 2828 2829 2831 2832 2833 2835 2836
2689 2692 2696 2699 2703 2706 2709 2711 2714 2718 2722 2725 2729 2732 2736 2740 2743 2747 2750 2754 2757 2761 2764 2767 2770 2772 2774 2776 2778 2781 2783 2785 2786 2788 2790 2791 2793 2795 2797 2798 2799 2801 2802 2803 2804 2806 2808 2810 2811 2813 2814 2816 2818 2819 2820 2821 2822 2823 2824 2825 2825 2825 2826 2827 2828 2829 2829 2829 2830 2832 2834 2835 2836 2837
2688 2691 2694 2697 2701 2704 2707 2709 2712 2716 2720 2724 2728 2731 2735 2738 2742 2746 2749 2753 2756 2759 2762 2765 2768 2770 2772 2775 2777 2779 2781 2783 2785 2786 2788 2790 2792 2793 2795 2797 2798 2799 2801 2802 2803 2804 2806 2808 2810 2811 2813 2815 2817 2818 2818 2819 2821 2822 2824 2825 2826 2826 2827 2828 2829 2830 2831 2831 2832 2833 2835 2836 2838 2838
2687 2689 2692 2696 2700 2703 2705 2708 2711 2713 2717 2722 2727 2730 2733 2737 2741 2745 2748 2751 2755 2758 2760 2763 2766 2768 2771 2773 2775 2777 2779 2781 2783 2785 2786 2788 2790 2792 2793 2795 2796 2798 2799 2800 2801 2802 2804 2806 2808 2810 2812 2813 2814 2815 2816 2818 2820 2822 2824 2825 2826 2826 2828 2829 2830 2831 2832 2833 2834 2835 2836 2837 2839 2839
2687 2688 2691 2694 2698 2701 2703 2706 2709 2712 2715 2720 2725 2728 2732 2736 2740 2743 2747 2750 2754 2756 2759 2762 2764 2767 2769 2772 2774 2776 2777 2779 2781 2783 2784 2786 2788 2790 2791 2793 2795 2796 2797 2799 2799 2801 2802 2804 2806 2808 2810 2811 2811 2812 2814 2816 2818 2820 2823 2824 2825 2826 2827 2829 2830 2832 2833 2833 2834 2836 2837 2838 2839 2840
2686 2688 2690 2693 2696 2699 2702 2705 2708 2710 2714 2718 2722 2727 2731 2735 2738 2742 2746 2749 2752 2755 2757 2760 2763 2765 2767 2770 2772 2774 2776 2777 2779 2781 2783 2784 2786 2788 2790 2792 2793 2795 2796 2797 2798 2800 2801 2803 2804 2806 2807 2808 2808 2810 2813 2815 2817 2819 2821 2823 2824 2825 2826 2827 2829 2830 2832 2833 2834 2836 2837 2838 2839 2840
2685 2687 2689 2692 2695 2697 2700 2703 2705 2708 2712 2716 2721 2725 2729 2733 2737 2741 2745 2748 2751 2753 2756 2758 2761 2763 2766 2768 2770 2772 2774 2775 2777 2779 2781 2783 2784 2786 2788 2790 2791 2793 2795 2796 2797 2798 2799 2800 2802 2803 2804 2806 2807 2809 2811 2814 2815 2817 2818 2821 2822 2824 2825 2826 2828 2829 2830 2832 2833 2835 2837 2838 2839 2840
2685 2687 2689 2691 2693 2696 2699 2701 2704 2707 2711 2715 2719 2723 2728 2732 2736 2739 2743 2746 2749 2751 2754 2757 2759 2762 2764 2766 2769 2770 2772 2774 2776 2778 2779 2781 2783 2785 2786 2788 2789 2791 2793 2794 2795 2796 2797 2799 2800 2801 2803 2804 2805 2807 2810 2812 2813 2814 2816 2818 2820 2822 2824 2825 2827 2828 2829 2831 2832 2834 2836 2838 2839 2839
2684 2686 2688 2690 2692 2695 2697 2700 2703 2706 2710 2714 2718 2722 2727 2731 2735 2738 2742 2745 2747 2750 2753 2755 2757 2760 2762 2764 2767 2769 2770 2772 2774 2776 2778 2779 2781 2783 2784 2786 2788 2789 2791 2792 2793 2794 2796 2797 2798 2800 2801 2803 2804 2806 2808 2810 2811 2812 2813 2815 2817 2820 2822 2824 2826 2827 2829 2830 2831 2833 2835 2836 2838 2839
2684 2686 2688 2690 2692 2695 2697 2699 2703 2706 2709 2713 2718 2722 2726 2730 2734 2737 2740 2743 2745 2748 2751 2753 2756 2758 2760 2763 2765 2767 2769 2771 2773 2774 2776 2778 2779 2781 2782 2784 2786 2787 2789 2790 2792 2793 2794 2796 2797 2799 2800 2801 2802 2804 2807 2808 2809 2810 2811 2812 2815 2817 2819 2821 2823 2825 2827 2829 2831 2832 2833 2835 2837 2838
Wind_Speed
48 48 47 47 47 46 44 42 40 39 38 38 39 40 40 41 42 43 43 42 39 37 37 36 34 33 34 37 39 40 40 37 36 36 37 37 38 39 40 41 41 40 39 38 38 37 38 39 39 39 40 41 44 53 64 64 58 52 44 32 25 29 36 43 57 72 78 79 81 80 74 63 58 63
47 47 47 47 47 46 44 42 40 38 38 39 39 40 40 41 42 43 43 43 39 37 37 35 33 33 33 36 37 39 39 37 35 35 36 36 37 38 39 39 39 39 39 39 38 36 38 39 38 38 39 41 43 50 61 65 62 57 49 34 24 23 30 39 50 64 71 73 75 78 78 74 67 62
44 46 46 46 45 44 43 41 39 38 38 38 39 40 40 41 41 42 43 44 40 37 35 34 32 32 33 35 37 38 37 36 35 35 35 35 36 37 38 38 38 38 38 39 38 36 37 39 38 37 38 40 42 47 55 61 60 58 50 38 27 19 23 35 44 55 63 65 65 66 70 75 71 65
42 43 44 44 44 43 42 40 38 37 37 37 38 39 40 40 41 41 42 44 41 37 35 33 32 32 33 34 36 37 36 35 35 35 35 35 35 36 37 37 36 36 37 38 37 36 37 38 37 36 38 39 41 43 50 56 58 59 53 42 30 18 17 29 37 46 53 58 60 54 54 68 72 66
40 41 42 42 42 42 41 40 38 37 36 36 37 39 40 40 40 40 41 42 42 38 34 33 32 32 33 33 34 36 35 34 35 35 36 35 35 35 35 35 35 34 36 36 37 36 36 36 35 35 37 39 40 42 46 53 58 60 55 45 33 20 14 22 28 37 46 52 60 53 44 57 69 65
38 40 41 41 41 40 40 39 37 36 36 36 37 38 39 39 39 39 40 41 41 37 32 32 32 32 32 32 32 34 34 33 34 35 35 35 34 33 33 34 34 33 35 35 36 36 35 34 34 35 36 38 40 41 43 50 56 59 56 50 40 26 17 14 20 33 43 44 55 56 45 51 64 66
38 39 40 41 40 39 39 39 37 36 35 36 37 37 37 38 38 38 39 39 39 37 32 31 32 31 31 31 31 32 32 32 33 33 33 32 32 32 32 32 32 32 33 34 34 34 34 33 33 34 35 36 39 41 41 46 53 57 56 52 45 33 23 14 13 29 40 36 41 51 51 53 60 64
38 39 40 40 39 38 39 39 37 36 35 36 36 36 36 37 37 37 38 37 37 36 32 30 31 30 30 30 30 30 30 30 32 31 31 30 30 30 30 30 30 31 32 33 33 33 33 32 33 33 33 34 37 39 40 43 48 52 53 51 48 40 30 21 12 23 35 32 32 43 49 51 54 56
39 39 40 40 39 39 40 39 37 36 36 36 36 36 36 36 35 35 36 36 36 36 33 30 29 29 29 29 28 28 29 29 30 30 29 29 28 28 28 28 29 30 31 32 32 32 31 31 31 31 31 31 33 37 39 40 44 47 48 48 48 46 38 29 20 16 24 26 29 39 46 47 51 52
40 40 40 40 39 40 40 39 37 37 37 37 36 36 35 35 35 34 35 35 35 34 32 30 29 28 28 28 26 26 28 28 28 28 29 28 27 26 26 27 28 29 31 31 31 30 29 30 30 30 30 29 30 35 37 39 41 42 44 45 46 47 42 35 28 19 16 20 26 38 45 45 49 54
40 41 41 40 40 41 41 39 38 38 38 38 36 35 35 35 35 34 33 34 34 33 31 30 28 27 27 26 24 25 27 27 26 27 27 25 25 25 24 25 27 29 30 30 29 29 28 29 29 28 28 28 27 31 35 38 40 41 41 43 45 46 43 39 35 27 17 15 21 34 44 42 44 51
41 42 42 41 41 41 40 40 39 38 38 38 37 35 35 35 34 33 32 33 33 32 30 29 27 26 26 25 23 24 25 25 25 25 24 22 22 24 24 24 27 28 29 27 27 28 28 28 28 27 27 27 26 27 31 36 40 41 41 42 44 47 44 39 38 34 24 15 15 28 41 41 39 45
41 42 42 42 40 40 39 40 40 39 38 38 37 35 34 34 34 32 32 32 31 30 29 28 26 26 25 24 24 24 24 24 24 23 22 20 21 23 24 24 26 26 25 25 26 27 27 26 27 27 27 27 26 25 27 32 38 40 41 42 43 47 46 39 37 37 32 23 13 21 38 41 40 44
41 41 42 42 41 40 39 39 39 38 37 38 37 35 34 34 33 32 31 31 30 30 29 27 26 26 25 24 25 24 23 23 22 21 20 20 20 21 23 24 24 22 22 23 26 27 25 25 26 26 27 26 25 25 24 27 34 38 40 42 43 46 47 41 36 36 35 32 23 17 30 37 39 43
42 40 42 42 41 41 39 38 37 37 37 38 37 35 34 33 33 32 31 30 29 29 28 27 26 25 24 24 25 24 23 22 21 19 19 19 19 20 22 23 22 20 20 22 25 25 24 24 26 26 26 25 24 24 23 23 28 34 37 40 42 44 47 44 39 36 34 34 31 21 22 29 36 44
41 40 41 42 42 42 40 38 37 37 38 38 37 36 34 33 32 31 30 30 29 29 29 27 25 24 24 24 25 23 22 21 19 19 18 18 19 20 21 21 20 19 20 22 24 24 23 24 25 24 23 24 23 22 22 22 24 29 34 38 41 43 46 46 42 38 34 33 33 26 20 22 31 42
39 39 40 41 41 42 41 39 37 37 37 38 37 36 35 33 32 31 31 31 30 29 28 26 24 24 24 24 24 22 21 19 18 18 18 18 19 19 20 20 19 19 20 23 23 22 22 23 23 23 21 21 21 20 20 20 22 26 31 35 39 41 44 45 44 41 36 33 32 29 24 21 27 39
38 37 38 39 40 41 41 39 37 35 36 38 37 36 35 32 31 31 31 30 29 28 27 24 23 24 25 24 23 21 19 18 19 18 18 18 19 19 19 19 19 19 20 22 21 20 21 22 21 20 19 19 19 19 19 19 20 23 27 32 36 39 41 43 43 42 38 35 33 31 26 23 26 36
39 37 36 37 39 40 40 39 37 35 35 37 38 36 34 31 30 31 31 29 28 27 26 24 24 25 25 23 21 20 18 19 19 18 18 18 18 18 18 18 18 19 20 20 20 19 20 20 19 18 18 18 18 18 18 18 19 21 23 28 33 36 39 41 41 41 40 37 34 32 28 25 27 32
41 37 34 35 37 39 39 39 37 36 36 37 38 35 32 30 30 31 30 29 28 27 25 25 26 26 24 22 20 18 18 19 19 18 18 17 17 17 17 17 18 19 19 19 19 19 19 18 17 16 16 16 16 16 16 17 18 20 21 24 28 33 37 39 40 40 40 39 36 33 29 27 28 32
43 36 31 32 35 37 38 37 37 36 37 38 37 34 31 30 31 31 30 30 29 27 26 25 26 25 22 21 19 19 19 18 18 17 17 16 17 17 17 17 18 19 20 20 19 19 18 16 15 14 15 15 15 15 15 15 16 18 20 22 25 29 33 37 39 39 40 40 38 34 31 28 28 32
43 36 30 30 33 35 36 35 35 36 37 38 35 31 30 31 31 30 30 30 28 27 26 26 26 25 22 21 20 18 18 18 17 17 16 16 17 17 17 18 19 19 20 20 18 17 16 15 14 14 14 14 14 15 15 15 15 17 19 22 24 27 30 34 37 39 39 40 39 36 32 30 29 31
41 35 30 29 30 32 32 32 34 35 36 36 33 30 30 31 30 29 30 29 28 27 27 26 25 24 22 20 19 18 17 17 17 16 16 16 17 17 18 19 20 20 20 19 17 16 15 14 13 13 13 13 13 13 13 14 15 16 18 21 24 27 29 32 35 38 39 39 40 38 34 32 31 31
39 34 30 28 28 28 29 30 32 34 35 33 30 30 30 28 27 28 30 29 29 28 27 26 25 24 23 21 19 18 18 17 16 16 16 17 18 18 19 20 20 20 19 17 15 15 14 12 11 10 10 10 10 10 10 11 13 15 17 20 24 27 29 31 34 37 39 40 40 39 37 35 34 34
37 32 29 28 26 26 28 30 31 32 32 30 29 29 28 26 27 30 31 30 29 28 27 26 26 25 23 21 18 17 17 16 16 15 15 17 18 19 20 21 20 20 19 17 15 14 12 10 9 8 7 7 8 8 8 9 11 12 13 17 21 25 29 32 33 35 38 40 40 39 39 37 36 35
34 30 28 27 25 26 28 30 31 30 29 28 28 27 27 28 30 31 31 30 30 28 27 26 26 24 23 21 18 17 16 16 15 15 15 17 19 20 20 21 20 20 19 17 15 14 12 10 8 6 5 5 6 6 6 6 8 9 10 12 16 21 26 30 33 35 37 39 40 40 40 39 38 37
32 29 28 26 25 27 28 29 30 29 28 27 27 27 29 30 31 32 32 31 29 27 26 25 24 23 22 21 19 17 17 17 16 16 16 18 19 20 20 20 20 19 18 16 15 13 11 10 8 6 4 4 4 4 3 3 5 7 8 9 11 15 20 25 29 32 35 37 39 40 40 40 40 39
31 29 27 26 26 27 28 28 29 28 28 27 27 28 30 31 32 32 31 29 27 26 25 24 22 22 22 20 19 19 20 19 18 17 17 18 19 20 20 20 20 18 16 15 13 12 11 9 7 5 4 3 4 5 4 3 4 5 6 7 8 10 13 18 23 27 31 35 38 40 41 41 41 41
30 28 27 27 27 27 26 28 28 28 28 28 29 31 32 31 32 33 30 28 27 26 23 22 21 21 20 19 21 22 22 21 19 18 17 17 18 19 20 19 18 16 15 14 13 12 11 9 7 5 4 4 4 6 5 5 5 5 4 5 5 6 8 11 15 20 24 29 33 37 40 41 41 41
28 28 28 28 27 26 26 28 29 29 29 29 31 33 33 32 31 32 30 28 27 24 21 20 20 19 19 21 23 24 23 22 21 19 18 18 18 18 18 19 18 16 16 15 14 13 12 10 7 6 6 5 6 7 7 7 6 5 4 2 2 2 4 5 8 12 17 21 26 31 36 39 41 41
26 27 29 28 26 24 26 29 30 29 30 33 34 35 35 33 31 30 29 27 25 22 20 19 19 20 21 22 23 24 24 23 22 21 19 18 18 18 18 18 17 17 16 15 14 14 12 10 8 7 7 7 7 8 9 8 7 5 4 3 3 3 4 4 4 5 8 13 20 25 30 35 39 41
26 27 29 29 27 25 27 30 30 30 33 36 37 37 37 34 31 30 28 26 24 23 21 21 20 20 20 21 22 23 23 23 22 21 20 19 18 18 17 17 17 17 16 15 15 14 13 11 10 9 9 8 8 9 10 9 7 6 5 5 6 7 7 6 6 5 4 7 13 19 23 28 33 37
27 29 29 29 26 24 26 29 30 30 34 38 39 39 39 36 32 30 29 27 25 23 22 21 20 19 18 19 20 21 21 21 21 21 21 21 20 18 17 17 17 17 15 15 15 15 14 12 12 11 10 9 9 10 10 9 8 8 8 8 8 7 6 7 7 6 4 3 7 12 17 21 25 30
27 28 28 26 24 22 23 28 30 31 34 39 40 39 39 38 34 32 30 28 25 23 22 21 19 18 18 19 19 19 19 19 20 20 21 21 21 20 19 18 18 17 16 16 16 16 15 14 13 12 12 11 10 11 11 10 10 10 10 9 7 5 4 6 7 6 5 2 1 5 10 15 20 24
26 26 25 23 21 19 21 26 29 31 35 40 41 40 39 38 35 33 31 28 25 23 23 21 20 19 20 20 19 19 19 19 19 19 19 20 20 19 20 20 19 18 18 17 16 16 15 14 13 13 13 12 12 12 12 12 12 11 11 9 6 3 3 4 5 5 5 4 2 1 4 9 14 20
25 24 23 21 18 17 20 25 28 30 35 40 43 42 40 39 37 34 32 29 26 24 23 22 21 20 21 21 20 19 19 19 18 18 18 18 17 17 19 20 21 20 19 18 17 16 15 15 15 14 14 13 12 13 14 14 14 13 12 11 9 7 5 6 5 4 4 3 2 2 2 3 7 12
23 22 22 19 17 18 21 24 26 30 34 40 44 44 42 41 38 35 32 29 27 25 23 22 21 21 21 20 20 19 18 18 18 18 18 17 16 16 16 18 19 20 20 19 18 17 16 16 16 15 15 14 13 13 15 16 15 15 14 13 12 10 9 9 7 5 4 4 3 2 2 2 2 4
22 22 21 19 19 22 24 25 27 29 34 40 44 44 43 42 39 36 33 30 27 25 24 22 22 22 21 20 19 18 17 17 17 17 17 17 16 16 16 16 17 19 20 20 20 19 18 16 15 15 15 14 13 15 16 17 17 16 15 14 14 12 11 10 10 8 6 5 4 3 3 3 3 3
21 21 21 19 21 24 26 27 28 30 34 39 42 43 43 42 39 36 34 31 28 25 24 23 23 22 22 21 19 18 17 16 16 16 17 17 16 16 17 17 17 18 20 21 21 21 20 18 16 15 14 14 16 18 19 18 18 17 15 14 14 14 12 12 11 10 8 7 6 5 5 5 5 5
20 21 21 20 22 25 27 27 27 30 34 38 41 43 43 41 39 37 34 31 29 27 25 24 23 22 22 21 20 19 17 16 15 16 17 17 17 16 16 17 17 18 19 20 21 21 20 19 18 16 16 17 19 20 20 19 18 18 17 16 16 15 14 13 12 11 9 8 8 7 6 5 6 6
20 21 21 20 22 25 27 27 26 28 34 39 41 42 42 40 38 36 34 32 30 28 26 24 23 22 23 22 20 19 18 16 15 16 16 17 16 16 16 16 16 17 18 18 19 19 19 19 19 19 20 22 22 21 19 18 18 18 19 19 18 17 16 14 13 11 10 9 9 8 7 6 5 6
18 20 20 20 22 25 26 26 26 28 34 39 41 40 39 38 36 35 34 33 32 30 28 25 24 23 23 22 21 19 18 16 15 15 16 16 16 16 15 15 15 15 16 17 17 18 18 19 20 21 22 23 23 21 19 17 17 19 19 20 20 20 19 17 16 14 13 11 10 10 8 7 6 6
16 17 18 20 22 24 25 26 27 29 34 40 42 40 38 36 35 35 35 34 33 31 28 26 24 23 23 22 21 20 18 16 15 15 16 16 16 16 15 14 14 13 14 14 16 17 17 18 19 20 21 22 22 20 18 17 18 19 20 21 21 22 21 20 19 17 16 14 12 11 10 8 8 8
14 15 17 19 22 23 24 25 27 30 35 40 41 40 37 35 34 34 33 33 32 30 27 25 24 23 22 22 21 20 18 16 16 16 16 17 17 16 15 14 12 12 12 13 14 15 15 16 16 17 18 19 19 18 17 17 18 19 19 21 21 21 22 23 22 21 19 17 15 14 12 10 10 10
13 14 15 17 20 22 24 25 26 29 35 39 40 39 37 34 33 33 33 33 31 29 27 26 24 22 22 22 21 20 18 17 16 16 17 17 16 16 15 13 12 12 12 12 13 13 14 14 14 14 15 17 18 17 17 19 20 19 19 20 21 21 22 24 24 23 23 21 19 17 16 14 12 11
Wind_Direction
262 261 261 260 260 259 259 259 260 260 262 264 266 269 272 275 277 277 277 276 274 272 271 272 268 262 259 259 259 260 259 258 255 253 251 251 250 251 254 257 260 262 263 265 266 266 267 267 268 267 262 256 248 237 230 228 227 230 238 241 235 224 218 223 232 235 235 236 235 229 225 229 233 226
262 261 260 259 258 258 257 257 258 258 259 261 264 267 270 272 274 276 276 276 274 272 272 271 268 262 259 258 259 260 260 258 256 254 253 252 250 250 252 256 259 261 263 264 265 265 266 267 268 268 262 255 248 238 232 232 231 232 236 241 241 226 213 215 223 232 236 237 237 234 232 237 238 228
262 261 260 259 258 257 256 255 255 255 256 259 262 265 268 270 272 273 274 274 274 273 272 271 266 260 257 256 257 259 260 260 257 255 254 253 251 250 252 254 257 259 261 263 264 264 265 267 268 268 263 254 246 239 236 236 234 231 233 238 241 228 206 206 214 226 233 236 238 237 235 237 233 225
261 260 259 258 257 256 255 254 253 252 253 255 260 263 266 268 269 271 272 273 274 273 272 270 265 259 256 254 255 257 259 260 259 257 255 253 252 251 252 254 256 258 260 261 262 263 263 266 267 268 263 252 244 239 237 237 233 230 231 235 237 231 199 192 202 215 224 230 231 224 221 227 228 224
259 258 258 257 256 255 254 253 252 250 250 253 257 261 264 265 267 269 271 272 273 272 271 268 263 258 255 253 254 256 258 259 259 258 257 255 253 252 253 255 256 256 257 259 260 261 262 265 267 268 263 251 241 238 236 236 232 229 231 233 234 235 204 177 181 199 208 212 214 208 202 214 223 225
257 256 256 255 254 254 254 253 251 250 250 252 255 258 261 263 266 268 270 271 272 271 269 266 262 257 254 253 253 255 257 258 258 257 257 257 256 254 253 254 254 254 255 256 258 260 262 264 265 266 263 251 240 236 235 234 232 230 233 235 234 235 226 184 163 184 195 193 196 199 194 198 212 221
256 254 254 253 252 252 252 251 250 249 250 252 255 257 259 261 264 266 268 269 270 269 266 262 260 257 255 254 254 255 257 258 258 257 257 257 257 256 255 254 253 252 252 253 255 258 260 260 262 264 264 254 241 236 234 233 232 232 235 237 234 233 236 228 168 174 188 186 184 189 186 189 205 216
256 254 252 252 251 250 250 249 248 248 249 252 255 257 258 259 261 264 266 266 266 266 264 259 257 257 255 255 255 256 257 257 258 257 257 257 257 256 255 254 252 249 249 250 252 255 257 257 259 262 263 256 243 236 233 232 232 234 236 238 236 234 236 242 215 172 179 182 178 181 183 191 206 215
258 254 252 251 250 248 247 247 247 247 248 250 253 256 257 258 259 261 262 262 262 262 262 259 256 254 253 253 254 256 257 257 258 258 257 256 256 256 256 254 251 248 247 248 250 253 255 256 257 260 262 258 246 237 233 231 231 233 236 238 238 235 236 241 239 196 175 173 174 179 184 193 206 212
260 256 253 250 248 247 246 245 245 245 246 249 251 253 256 257 258 258 258 258 258 258 258 256 253 250 250 250 252 255 258 258 258 259 258 257 255 254 254 253 250 246 245 246 249 251 254 254 255 257 259 259 250 239 234 231 230 231 233 235 236 235 235 239 242 233 195 170 168 177 183 189 200 208
260 256 253 250 247 246 246 245 243 243 245 248 249 251 253 255 256 256 255 255 255 255 254 253 249 245 246 248 250 254 259 260 260 259 257 257 257 254 252 250 248 245 243 245 248 250 251 251 252 254 255 256 252 242 235 231 229 229 229 231 232 233 234 236 239 244 229 185 166 173 180 183 193 204
260 255 252 250 247 246 246 245 244 243 244 246 248 249 251 253 254 255 253 252 252 252 251 247 243 241 244 248 252 255 260 262 262 261 257 254 254 254 252 247 244 243 243 245 247 248 248 248 249 251 252 252 252 245 237 231 229 228 227 228 230 230 233 235 237 242 241 218 178 173 181 185 192 204
260 255 252 250 248 246 246 246 245 243 243 244 247 248 249 251 252 252 251 250 250 249 246 242 238 240 244 249 253 256 261 262 261 261 258 252 248 250 252 248 242 240 242 244 245 245 246 246 246 247 248 248 249 246 239 231 229 229 226 226 228 229 231 234 237 240 241 237 217 176 177 183 190 203
261 256 252 248 246 245 245 245 245 244 242 243 245 246 248 249 250 250 248 248 247 245 242 237 237 241 245 249 253 255 259 261 259 259 256 252 247 245 246 247 242 237 236 239 243 244 244 244 244 243 244 245 245 245 242 233 229 229 226 225 226 227 230 232 235 240 239 240 239 197 172 173 179 193
261 256 252 247 244 243 243 244 244 243 242 242 243 244 245 247 248 247 245 244 244 241 237 234 236 241 244 248 251 253 256 259 258 256 251 248 245 241 240 242 241 236 232 236 241 243 242 242 243 242 241 242 242 243 243 238 232 229 227 226 226 226 228 230 233 239 239 239 241 223 181 171 173 183
261 257 252 247 243 241 241 241 242 242 241 242 242 242 243 244 244 244 242 240 239 237 234 233 237 241 243 246 248 250 254 256 255 253 248 243 240 238 237 238 238 236 235 236 239 241 241 242 243 242 241 241 242 244 244 242 236 231 227 226 225 225 227 229 231 236 239 239 240 231 206 185 175 178
258 256 252 247 242 240 239 240 241 241 240 240 241 241 241 242 242 241 240 238 236 233 232 233 237 241 242 243 245 248 250 252 251 248 245 241 237 236 235 235 236 235 235 237 238 238 239 241 242 241 240 241 243 245 247 246 241 235 230 226 224 223 225 228 230 234 238 240 239 233 221 204 182 177
253 252 250 246 241 239 239 239 240 241 239 238 239 239 239 239 239 239 238 236 233 231 230 233 236 239 240 240 242 245 247 248 246 244 243 240 238 236 234 233 234 234 233 235 235 234 234 236 238 238 239 241 245 247 250 250 247 242 235 228 225 223 223 226 228 231 235 237 239 236 227 213 192 180
250 247 246 244 240 238 238 238 239 241 239 237 236 237 237 236 235 235 235 234 231 228 228 231 234 235 236 237 239 242 243 244 243 242 241 240 238 236 232 230 231 232 230 230 229 227 228 231 234 237 240 243 248 250 252 252 251 247 240 234 228 224 222 223 226 228 231 234 238 238 231 217 199 185
249 244 242 242 240 238 238 237 238 240 239 236 235 235 235 232 230 230 231 229 227 226 227 230 232 233 233 234 236 239 239 240 241 240 240 238 235 233 229 225 225 227 227 224 222 221 223 227 232 238 244 248 251 253 253 252 250 247 242 238 233 227 223 222 223 226 228 231 235 236 233 221 204 192
250 245 240 239 240 238 237 236 236 238 237 234 233 234 232 229 227 226 226 226 225 224 225 228 232 233 231 231 233 234 235 237 237 236 235 232 229 227 222 219 219 221 222 219 217 218 221 227 233 239 246 250 253 255 255 253 250 246 241 236 233 230 226 223 221 223 225 228 231 233 232 225 210 198
250 245 238 237 238 238 237 236 234 234 234 232 231 231 230 227 224 222 223 223 223 223 224 226 229 229 227 227 229 230 231 232 231 231 230 226 224 220 215 213 213 214 216 217 216 217 221 228 233 240 247 251 253 256 259 258 253 247 241 235 230 228 227 224 221 221 222 224 226 228 230 227 216 204
247 243 237 236 237 237 236 234 231 231 232 231 229 227 226 224 221 219 220 221 221 221 223 224 227 227 225 224 225 225 226 225 226 227 226 223 220 215 209 209 210 211 214 216 216 218 223 228 233 240 249 255 257 258 261 262 259 251 242 235 230 226 225 224 222 220 219 221 223 224 226 227 223 214
245 241 236 235 235 234 233 230 229 229 230 229 225 223 222 219 216 217 218 218 219 220 220 221 223 224 223 221 218 218 220 221 222 223 223 222 218 212 206 207 209 211 214 215 217 220 223 227 234 242 252 261 266 267 269 269 264 254 245 236 230 226 224 223 221 220 219 219 220 222 223 224 224 222
244 239 233 233 231 229 228 228 227 228 229 226 222 219 215 211 210 214 215 216 217 218 219 219 220 221 221 219 214 212 215 218 219 219 220 221 218 211 206 205 207 211 213 214 216 221 223 225 231 241 253 265 274 279 278 274 267 259 249 239 231 227 225 222 220 218 218 218 218 220 221 222 223 223
244 237 231 229 226 224 225 227 227 227 225 223 219 213 206 204 207 211 213 214 216 217 218 220 220 219 220 218 213 210 213 216 217 216 217 218 216 211 207 205 206 209 213 214 217 222 225 227 229 233 239 249 264 275 277 273 268 262 255 245 235 229 226 224 221 217 217 218 218 218 219 220 221 221
243 235 228 225 222 221 223 225 225 223 220 218 213 204 199 202 206 210 212 213 214 216 218 220 219 218 218 216 211 210 214 216 215 215 215 214 213 211 208 207 208 209 212 215 219 223 228 230 229 226 223 222 231 241 247 251 251 253 253 247 239 233 229 227 224 220 216 216 217 218 219 219 218 219
238 231 224 221 221 220 221 222 220 216 214 213 206 198 197 201 205 209 211 211 211 214 217 218 218 217 216 213 208 209 213 215 214 214 214 212 210 210 209 209 209 210 211 215 219 223 228 229 228 223 218 214 206 201 207 209 195 209 239 245 236 232 232 230 228 224 219 216 216 217 219 219 218 218
231 225 220 219 220 219 217 214 212 209 209 206 199 193 194 199 205 208 208 209 211 213 215 215 215 215 213 209 207 209 212 212 212 212 211 208 206 208 210 211 209 207 210 214 217 221 226 225 222 217 211 205 194 185 188 189 172 170 210 242 235 230 233 234 233 229 223 219 217 217 218 219 219 219
225 219 216 217 218 215 211 209 206 204 204 201 195 192 191 195 204 208 207 207 211 213 213 212 211 210 209 206 207 209 209 208 209 210 209 206 202 202 208 212 209 206 208 211 213 218 223 219 211 208 206 197 185 181 185 185 177 167 166 172 194 223 223 223 231 233 228 223 220 218 217 217 218 219
225 217 214 216 214 208 204 205 204 201 199 196 193 191 190 191 200 207 206 206 210 212 210 207 205 205 206 206 206 207 207 206 206 208 208 206 201 199 203 208 209 208 208 210 212 215 218 214 202 200 204 197 180 180 191 195 187 183 183 164 130 116 136 160 184 208 222 225 223 221 220 218 217 217
224 218 215 215 212 204 200 202 202 199 197 194 192 190 189 189 198 205 205 205 209 208 203 201 201 203 205 205 205 207 207 206 206 206 207 207 203 200 200 204 209 210 207 207 209 211 211 206 198 194 199 199 183 180 192 199 188 181 180 156 124 110 115 126 131 137 175 222 224 222 222 222 220 219
221 219 216 215 213 207 201 202 202 199 196 195 194 192 189 189 195 202 203 205 206 203 199 198 198 199 201 203 204 206 206 206 206 206 207 208 206 201 199 201 208 212 209 204 204 206 205 201 197 194 196 196 187 182 189 192 180 172 167 151 129 109 107 117 120 128 154 211 226 221 220 221 221 221
217 218 217 214 212 210 204 202 202 200 195 194 196 196 194 192 194 200 203 206 204 199 197 196 193 194 199 200 202 204 204 204 205 205 205 209 209 204 200 202 208 213 214 209 203 202 203 202 199 196 195 193 187 184 189 192 182 173 174 168 146 116 116 131 128 126 130 122 226 227 218 217 219 219
215 214 213 211 209 209 205 201 201 200 197 195 195 196 196 196 197 200 203 206 203 197 195 193 190 193 198 198 198 200 200 201 205 204 204 208 209 205 202 205 209 214 218 218 210 202 202 203 203 200 198 195 189 184 189 197 194 186 188 197 197 188 177 166 153 144 137 121 86 155 197 211 218 218
214 211 210 208 203 200 199 200 200 200 199 197 195 194 196 198 199 201 204 206 203 198 194 192 192 195 197 196 197 199 198 199 203 204 205 206 206 203 202 206 210 215 220 224 221 212 203 202 204 205 204 200 194 188 189 197 202 200 200 211 223 223 203 180 172 165 156 149 134 126 155 194 216 219
213 212 212 208 198 192 193 195 198 200 200 199 197 195 196 199 201 203 206 206 203 200 197 194 195 197 198 198 199 199 198 200 202 203 205 205 202 199 199 203 209 215 219 225 229 224 215 207 204 205 207 205 198 195 195 197 201 204 205 210 218 219 206 190 180 166 160 172 179 168 146 138 161 201
209 211 211 204 193 191 192 193 195 198 200 200 199 197 198 201 203 204 207 208 205 202 200 198 198 200 201 200 200 200 200 201 203 204 206 206 202 197 195 197 202 207 212 219 225 227 224 219 212 207 208 206 203 203 203 201 200 202 205 210 216 216 207 195 185 176 174 180 176 173 187 182 157 158
203 206 207 198 189 190 194 194 194 195 197 199 200 199 200 203 204 205 208 209 207 204 203 202 202 204 204 202 201 202 203 203 204 207 208 207 204 199 195 194 196 199 204 210 217 222 224 223 220 216 213 211 212 212 210 207 204 202 202 206 213 216 209 198 190 187 188 187 179 178 191 191 174 166
199 203 204 195 185 187 191 193 194 195 195 195 198 200 202 203 205 207 208 209 208 207 206 206 206 207 206 204 202 204 205 205 206 209 210 208 205 202 199 197 196 197 201 205 212 218 221 221 220 219 219 221 221 218 215 212 210 206 203 203 208 213 211 204 198 194 194 197 198 193 190 189 185 178
200 204 203 193 185 184 186 189 193 195 193 192 195 199 202 203 205 207 208 209 209 210 209 209 209 210 208 205 204 205 206 207 209 212 212 209 207 205 202 200 199 199 200 203 208 213 216 216 217 217 219 224 226 224 220 216 214 212 209 206 207 210 211 209 208 204 202 207 209 202 197 196 191 181
198 201 199 192 186 184 184 186 191 193 190 190 193 197 200 201 203 205 207 208 210 212 212 212 213 213 209 207 206 207 207 207 210 213 213 210 208 206 203 202 202 202 202 202 204 207 210 211 213 215 218 223 228 229 226 222 220 219 216 211 209 210 211 211 211 211 211 215 214 209 205 201 192 187
191 194 193 189 186 185 185 189 192 191 188 189 192 195 196 199 201 203 205 208 211 213 215 216 216 214 211 208 207 208 207 208 211 213 213 210 208 206 204 204 204 203 202 202 203 206 209 210 212 214 217 222 227 229 226 222 222 224 222 217 213 211 210 210 211 212 215 219 219 215 212 206 197 194
185 188 190 189 187 186 186 190 193 191 188 189 192 194 194 197 199 202 205 210 213 215 216 218 218 215 211 208 207 207 208 209 212 213 212 210 207 206 205 205 203 201 203 205 207 210 213 214 215 216 217 220 224 224 218 216 218 221 222 222 219 213 211 211 211 210 213 217 220 220 218 212 204 200
181 186 190 191 189 187 187 188 190 190 188 189 191 193 192 194 197 201 205 210 214 215 217 219 218 215 211 208 207 207 208 210 213 213 211 209 208 206 205 204 202 201 204 209 212 214 217 218 220 219 218 220 222 218 210 210 214 216 219 222 221 216 213 213 212 210 210 212 216 219 219 216 211 205